Location: Honey Creek State Natural Area
(29.8555°N, 98.4942°W)
Time: 00:31:01
(UTC-05:00)

Tiangong 2 - Visible Passes

Search period start: 26 April 2018 00:00
Search period end: 06 May 2018 00:00
Orbit: 381 x 388 km, 42.8° (Epoch: 25 April)

Date Brightness Start Highest point End Pass type
(mag) Time Alt. Az. Time Alt. Az. Time Alt. Az.
29 Apr 3.9 06:25:29 10° SSE 06:26:39 12° SE 06:27:50 10° ESE visible
01 May 2.9 06:01:21 10° SSW 06:03:59 24° SE 06:06:38 10° E visible
02 May 3.8 05:04:31 11° SE 05:04:32 11° SE 05:05:39 10° ESE visible
03 May 1.4 05:40:01 29° SSW 05:41:20 56° SE 05:44:27 10° ENE visible
04 May 3.6 04:43:11 18° E 04:43:11 18° E 04:44:26 10° E visible
04 May 2.3 06:15:35 10° W 06:18:27 31° NNW 06:21:20 10° NE visible
05 May 1.1 05:18:30 61° WNW 05:18:43 64° NNW 05:21:52 10° NE visible
